sat.trackr.live / text

‹ back to catalog

STARLINK-36227

NORAD 67095 · 2025-298W

PAYLOAD ACTIVE UNKNOWN

§ Identity

Operator
Country
US
Launch date
2025-12-14
Launch site
AFWTR
Launch vehicle
Mass (kg)
RCS (m²)

Purposes: comms

External: N2YO · Heavens-Above · Gunter

§ Orbital elements

Epoch: 2026-05-24T12:00:13.030848Z

Period
96.11 min
Inclination
70.0009°
Eccentricity
0.0004849
Mean motion
14.98329924 rev/d
Perigee alt
568.7 km
Apogee alt
575.4 km
Semi-major
6,950.2 km
B*
4.5195e-4
RAAN
183.2838°
Arg perigee
266.5926°
Mean anomaly
93.4678°
Rev number
2,457

§ Raw data

STARLINK-362271 67095U 25298W   26144.50015082  .00005304  00000+0  45195-3 0  99992 67095  70.0009 183.2838 0004849 266.5926  93.4678 14.98329924 24575

JSON: /api/v1/satellites/67095 · /tle

For live sub-satellite position, see the globe view (requires WebGL).

§ Visibility from observer

Set your observer location to see the next 7 days of passes ≥ 10°. The values pass through the URL so the page stays shareable.

No JS? Fill the form by hand. The geolocation button needs JavaScript.